Hourly Weather Roundup
Issued by NWS Central Illinois

Home | Current Version | Previous Version | Text Only | Print | Product List | Glossary On
Versions: 1 2 3 4 5 6 7 8 9 10 11 12 13 14 15 16 17 18 19 20 21 22 23 24 25 26 27 28 29 30 31 32 33 34 35 36 37 38 39 40 41 42 43 44 45 46 47 48 49 50
000
NZUS43 KILX 181710
HWRILX

AREA WEATHER ROUNDUP
NATIONAL WEATHER SERVICE, LINCOLN IL
1200 PM CDT SAT APR 18 2015


CITY           SKY/WX    TMP DP  RH WIND       PRES   REMARKS
BLOOMINGTON    CLOUDY    76  56  49 SE8       30.05S
CHAMPAIGN      CLOUDY    76  47  35 SE9       30.04S
DECATUR        PTSUNNY   75  50  41 E8        30.03S
EFFINGHAM      MOSUNNY   76  47  36 SE3       30.04S
FLORA          CLOUDY    73  56  55 S7        30.04R
GALESBURG      CLOUDY    76  55  48 SE7       30.01S
JACKSONVILLE   CLOUDY    79  58  49 SE8G17    30.01F HX  80
LACON          CLOUDY    74  55  50 CALM      30.01S
LAWRENCEVILLE  CLOUDY    76  56  49 VRB6      30.04R
LITCHFIELD     PTSUNNY   73  57  57 SE9       30.02F
$$


CITY           SKY/WX    TMP DP  RH WIND       PRES   REMARKS
LINCOLN        PTSUNNY   77  50  38 SE8       30.00F
MACOMB         CLOUDY    76  54  45 SE13      30.03S
MATTOON        LGT RAIN  75  48  38 SE9       30.03S
MT CARMEL AP   CLOUDY    77  54  44 SE5       30.03S
OLNEY-NOBLE AP CLOUDY    73  54  49 CALM      30.03S
PARIS          PTSUNNY   75  49  38 E7        30.05S
PEORIA         PTSUNNY   76  57  51 VRB6      30.03R
PONTIAC        CLOUDY    76  56  50 CALM      30.03F
RANTOUL        CLOUDY    78  50  37 SE7       30.04F
ROBINSON       PTSUNNY   75  51  42 SE5       30.05S
SPRINGFIELD    PTSUNNY   78  56  46 SE10G17   30.02S
TAYLORVILLE    MOSUNNY   73  54  49 SE12      30.02F
$$

...REGIONAL REPORTS...


CITY           SKY/WX    TMP DP  RH WIND       PRES   REMARKS
CHICAGO O`HARE PTSUNNY   57  38  48 NE15      30.09F
KANKAKEE       PTSUNNY   74  54  49 NE10      30.05S
MOLINE         CLOUDY    76  53  44 E10       29.99F
MOUNT VERNON   CLOUDY    75  61  60 E6        30.03F
PITTSFIELD     CLOUDY    77  54  45 SE14      30.01F
QUINCY         CLOUDY    76  55  48 SE13      29.99F
ROCKFORD       PTSUNNY   68  36  30 E16       30.09S
$$


CITY           SKY/WX    TMP DP  RH WIND       PRES   REMARKS
BURLINGTON     PTSUNNY   75  57  53 S10       29.99S
CEDAR RAPIDS   CLOUDY    73  51  46 E13       29.98F
DES MOINES     CLOUDY    72  55  55 E9        29.93F
KIRKSVILLE     CLOUDY    65  62  90 E9        29.97F
OTTUMWA        CLOUDY    74  56  53 SE13      29.95F
ST LOUIS       CLOUDY    73  60  63 SE8       30.01S
$$


CITY           SKY/WX    TMP DP  RH WIND       PRES   REMARKS
TERRE HAUTE    PTSUNNY   75  48  38 SE5       30.04S
EVANSVILLE     CLOUDY    76  58  53 VRB5      30.02F
INDIANAPOLIS   CLOUDY    73  45  36 VRB5      30.04F
LAFAYETTE      CLOUDY    74  46  36 CALM      30.04F
MADISON        PTSUNNY   64  36  35 E18       30.11F
MILWAUKEE      MOSUNNY   46  36  68 N25G35    30.16S
$$




USA.gov is the U.S. government's official web portal to all federal, state and local government web resources and services.